CZ-6A DEB, 61487

Orbit data source: Space-Track

CZ-6A DEB, 61487 is space debris in LEO originally from a launch on Tue, 06 Aug 2024 UTC launched from the Taiyaun Space Center, China (TSC). Debris objects in space refer to the collection of defunct objects orbiting the Earth. Examples of debris include non-operational satellites, rocket bodies, and fragments generated from explosions, collisions, or faulty payload assembly.

Loading next visibility...
Identifier
61487, 2024-140AAV
Orbit
LEO
Country
Flag of CNCN / PRC
Related business
Manufacturer
SAST
Mission
Spacecraft
Bus & Motor
Unknown
Mass
Unknown
Launch date (UTC)
2024-08-06 (2 years ago)
Launch vehicle
Unknown
Launch site
Taiyaun Space Center, China (TSC)
Object type
Payload
Rocket body
Debris
Shape & HBR
Unknown shape, 0.1 m
Radar Cross Section
Small (<0.1 m²)

Expand to show TLE details & history
Last TLE update: 1 day ago

TLE from 1 day ago
0 CZ-6A DEB
1 61487U 24140AAV 26117.88818985  .00002601  00000-0  10518-2 0  9995
2 61487  89.0065 280.4815 0036003   4.6431 355.5090 14.27247670 84700
Epoch: 2026-04-27T21:18Z
TLE epoch observation values (Epoch: 2026-04-27T21:18:59.603Z)
Latitude
0.00003°
Longitude
104.86176°
Altitude
778.237 km
Speed
7.478 km/s
True Right ascension
18h 41m 55s
True Declination
0° 00' 00"
Sunlit
Object was in daylight at epoch
Visualization orbit readout
Latitude
Unknown
Longitude
Unknown
Altitude
Unknown
Speed
Unknown
Apparent Right ascension
Unknown
Apparent Declination
Unknown
Sunlit
N/A
Visualization observer readout
Local Sidereal Time
06:29:14
Azimuth
Unknown
Elevation
Unknown
Doppler factor
Unknown
Orbital elements
Apogee altitude
823.722 km
Perigee altitude
772.05 km
Semi-major axis
7,176.023 km
Eccentricity
0.0036
Inclination
89.0065°
RAAN
280.4815°
Arg. of periapsis
4.6431°
True anomaly
355.47655°
Mean anomaly
355.509°
Eccentric anomaly
355.49279°
Mean motion
3.5704 °/min
Orbital period
100.83 mins
BSTAR
0.0010518
Loading maneuver chart data...
Computing Atmospheric mass density...
Loading historical data...
Loading historical data...
Loading historical data...
Loading historical data...
Loading historical data...
Loading historical data...
Loading historical data...

Documentation

Showing up to 5 results
|